Location: Brest
(52.1000°N, 23.7000°E)
Time: 18:48:01
(UTC+03:00)

Envisat - Visible Passes

Search period start: 18 September 2018 00:00
Search period end: 28 September 2018 00:00
Orbit: 764 x 766 km, 98.2° (Epoch: 18 September)

Date Brightness Start Highest point End Pass type
(mag) Time Alt. Az. Time Alt. Az. Time Alt. Az.
18 Sep 4.6 21:05:07 10° SSW 21:09:46 36° W 21:14:28 10° NNW visible
19 Sep 3.4 20:27:47 10° S 20:32:51 70° WSW 20:37:57 10° NNW visible
19 Sep 6.0 22:11:10 10° WSW 22:12:50 11° W 22:14:32 10° WNW visible
20 Sep 5.3 21:31:36 10° SW 21:35:35 23° W 21:39:35 10° NW visible
21 Sep 4.2 20:53:41 10° S 20:58:31 43° W 21:03:23 10° NNW visible
22 Sep 3.1 20:16:34 10° SSE 20:21:40 84° WSW 20:26:47 10° NNW visible
22 Sep 5.8 21:58:48 10° WSW 22:01:29 14° W 22:04:12 10° NW visible
23 Sep 5.0 21:19:58 10° SSW 21:24:17 27° W 21:28:37 10° NW visible
24 Sep 3.8 20:42:20 10° S 20:47:17 53° W 20:52:17 10° NNW visible
25 Sep 3.0 20:05:24 10° SSE 20:10:29 81° ENE 20:15:36 10° NNW visible
25 Sep 5.7 21:46:49 10° SW 21:50:10 17° W 21:53:31 10° NW visible
26 Sep 4.7 21:08:27 10° SSW 21:13:01 33° W 21:17:37 10° NNW visible
27 Sep 3.5 20:31:02 10° S 20:36:04 64° WSW 20:41:09 10° NNW visible
27 Sep 6.1 22:15:10 10° W 22:16:08 10° W 22:17:05 10° WNW visible
